TimeCST,TemperatureF,Dew PointF,Humidity,Sea Level PressureIn,VisibilityMPH,Wind Direction,Wind SpeedMPH,Gust SpeedMPH,PrecipitationIn,Events,Conditions,WindDirDegrees,DateUTC
12:53 AM,3.9,-5.1,66,30.20,10.0,SSW,15.0,-,N/A,,Clear,200,2013-12-10 06:53:00
1:53 AM,6.1,-5.1,60,30.15,10.0,SSW,18.4,-,N/A,,Partly Cloudy,210,2013-12-10 07:53:00
2:53 AM,10.0,-0.0,64,30.12,10.0,SSW,15.0,-,N/A,,Overcast,210,2013-12-10 08:53:00
3:53 AM,15.1,1.9,56,30.09,10.0,SW,17.3,27.6,N/A,,Overcast,230,2013-12-10 09:53:00
4:53 AM,14.0,3.0,62,30.08,10.0,SW,16.1,25.3,N/A,,Mostly Cloudy,220,2013-12-10 10:53:00
5:53 AM,15.1,3.9,61,30.09,10.0,WSW,17.3,-,N/A,,Overcast,250,2013-12-10 11:53:00
6:53 AM,15.1,5.0,64,30.11,10.0,West,16.1,-,N/A,,Clear,260,2013-12-10 12:53:00
7:53 AM,16.0,6.1,65,30.14,10.0,West,12.7,-,N/A,,Clear,260,2013-12-10 13:53:00
8:53 AM,18.0,8.1,65,30.18,10.0,WNW,13.8,-,N/A,,Clear,290,2013-12-10 14:53:00
9:53 AM,19.9,8.1,60,30.22,10.0,WNW,18.4,28.8,N/A,,Clear,290,2013-12-10 15:53:00
10:53 AM,19.9,7.0,57,30.24,10.0,WNW,20.7,28.8,N/A,,Clear,290,2013-12-10 16:53:00
11:53 AM,21.0,7.0,55,30.25,10.0,WNW,16.1,25.3,N/A,,Clear,290,2013-12-10 17:53:00
12:53 PM,21.9,5.0,48,30.25,10.0,WNW,16.1,25.3,N/A,,Clear,290,2013-12-10 18:53:00
1:53 PM,21.9,7.0,53,30.25,10.0,West,10.4,-,N/A,,Clear,280,2013-12-10 19:53:00
2:53 PM,23.0,6.1,48,30.23,10.0,West,8.1,-,N/A,,Clear,280,2013-12-10 20:53:00
3:53 PM,21.0,7.0,55,30.22,10.0,West,3.5,-,N/A,,Clear,280,2013-12-10 21:53:00
4:53 PM,19.9,8.1,60,30.25,10.0,SW,6.9,-,N/A,,Clear,230,2013-12-10 22:53:00
5:53 PM,21.0,8.1,57,30.23,9.0,Calm,Calm,-,N/A,,Clear,0,2013-12-10 23:53:00
6:53 PM,19.9,10.0,65,30.27,10.0,SSW,4.6,-,N/A,,Overcast,210,2013-12-11 00:53:00
7:53 PM,19.9,10.9,68,30.28,10.0,South,3.5,-,N/A,,Overcast,190,2013-12-11 01:53:00
8:53 PM,19.9,10.9,68,30.27,10.0,South,4.6,-,N/A,,Overcast,190,2013-12-11 02:53:00
9:53 PM,19.9,10.0,65,30.26,10.0,ESE,4.6,-,N/A,,Scattered Clouds,110,2013-12-11 03:53:00
10:53 PM,21.0,10.9,65,30.25,10.0,SE,4.6,-,N/A,,Overcast,140,2013-12-11 04:53:00
11:53 PM,21.0,10.9,65,30.25,10.0,ESE,4.6,-,N/A,,Overcast,110,2013-12-11 05:53:00